sat.trackr.live / text

‹ back to catalog

ONEWEB-0670

NORAD 55829 · 2023-029AK

PAYLOAD ACTIVE UNKNOWN

§ Identity

Operator
Country
UK
Launch date
2023-03-09
Launch site
AFETR
Launch vehicle
Mass (kg)
RCS (m²)

Purposes: comms

External: N2YO · Heavens-Above · Gunter

§ Orbital elements

Epoch: 2026-05-25T03:33:58.644288Z

Period
109.55 min
Inclination
87.8930°
Eccentricity
0.0002025
Mean motion
13.14501851 rev/d
Perigee alt
1,204.3 km
Apogee alt
1,207.3 km
Semi-major
7,583.9 km
B*
-7.6895e-5
RAAN
294.3379°
Arg perigee
86.5182°
Mean anomaly
273.6179°
Rev number
15,640

§ Raw data

ONEWEB-06701 55829U 23029AK  26145.14859542 -.00000016  00000+0 -76895-4 0  99982 55829  87.8930 294.3379 0002025  86.5182 273.6179 13.14501851156402

JSON: /api/v1/satellites/55829 · /tle

For live sub-satellite position, see the globe view (requires WebGL).

§ Visibility from observer

Set your observer location to see the next 7 days of passes ≥ 10°. The values pass through the URL so the page stays shareable.

No JS? Fill the form by hand. The geolocation button needs JavaScript.